Temp
17 16 17 17 17 17 18 19 18 18 18 18 17 16 16 16 16 16 16 16 15 15 14 13 13 13 13 12 12 12 11 11 11 11 11 11 11 11 10 10 9 9 8
16 17 17 17 17 17 17 18 18 18 18 18 18 17 17 16 16 16 17 17 16 15 15 14 14 14 13 12 12 12 12 11 11 11 11 11 10 10 10 10 9 8 7
15 16 16 17 17 17 17 17 17 17 17 17 17 17 16 17 16 16 16 16 16 16 16 16 14 14 13 13 12 12 12 12 11 11 11 11 11 10 9 9 8 8 7
15 16 16 16 16 16 17 17 17 17 17 17 16 17 18 17 17 16 16 16 16 16 16 16 15 13 13 12 12 12 12 11 11 11 11 11 11 11 10 9 8 8 7
15 16 16 17 17 16 16 16 16 16 16 16 16 16 16 16 16 17 16 16 16 16 15 15 15 14 14 13 11 11 11 11 11 11 11 11 10 10 9 9 8 7 6
14 14 15 16 17 17 17 17 16 16 16 16 16 16 16 16 16 15 16 16 16 16 15 15 15 15 14 13 11 10 10 10 10 10 10 10 10 10 9 8 7 6 6
13 13 14 15 16 16 17 17 17 17 16 16 16 16 16 16 16 16 16 16 16 16 16 15 15 15 14 13 10 10 10 10 9 9 9 9 9 8 8 7 6 5 5
13 13 13 13 13 14 14 15 16 16 16 16 16 16 15 16 16 16 16 16 16 16 16 15 15 14 13 10 10 9 9 9 8 8 8 7 7 7 6 6 6 4 4
11 11 11 11 13 13 13 14 14 15 15 15 15 15 15 15 15 15 15 16 16 16 15 15 15 14 11 9 9 8 8 7 7 7 7 6 6 5 5 4 4 3 1
11 11 11 10 10 11 12 12 13 13 14 14 15 15 15 14 14 14 15 15 15 15 15 14 13 10 9 9 8 7 6 6 6 5 5 5 5 4 4 4 3 2 1
10 10 10 10 10 10 10 11 11 12 13 14 14 14 14 14 14 13 13 13 13 13 13 11 10 9 9 7 6 5 5 4 4 4 2 3 4 3 2 2 2 1 -1
9 9 8 8 9 9 10 10 10 11 12 13 13 13 13 13 12 11 10 10 10 10 9 9 9 8 6 5 5 4 3 3 3 2 2 3 1 1 0 0 -0 -1 -1
7 7 7 8 8 9 9 10 10 11 11 12 12 11 11 11 10 8 8 8 9 8 8 8 7 5 4 4 3 3 3 3 3 2 1 -0 1 -1 -1 -1 -1 -2 -3
6 6 6 7 8 9 9 8 9 9 10 11 11 8 8 8 8 8 8 7 8 8 8 6 4 3 2 2 2 2 1 2 1 0 0 1 -0 -1 -1 -1 -2 -3 -4
5 5 6 6 7 8 7 7 8 7 7 7 8 6 7 7 7 7 7 7 6 5 5 3 2 2 2 2 1 2 1 -1 -1 -1 -0 -1 -1 -1 -1 -2 -3 -5 -5
3 5 5 5 6 6 5 5 6 5 4 5 5 4 4 4 4 4 4 5 3 2 2 2 2 1 1 1 1 2 1 -0 -1 -1 -1 -1 -1 -2 -2 -3 -4 -5 -6
1 2 4 4 4 5 4 5 4 3 3 3 2 2 2 1 1 1 1 1 1 1 0 1 1 1 1 -0 -0 -0 -1 -1 -2 -2 -1 -1 -2 -3 -4 -4 -5 -6 -7
1 2 2 2 3 3 3 3 2 3 4 3 3 1 0 -0 0 0 0 -0 -0 -0 0 0 -0 -0 -1 -0 -1 -1 -1 -2 -2 -2 -2 -3 -4 -4 -5 -6 -7 -8 -8
0 1 1 1 1 1 1 2 2 3 2 1 1 1 0 0 -0 1 1 -0 -1 -0 -0 0 -0 -1 -1 -2 -3 -2 -2 -3 -3 -4 -5 -5 -5 -6 -7 -8 -8 -8 -8
-0 0 0 0 0 0 0 1 1 0 0 -1 -1 -1 -1 -1 -1 -1 -0 -0 -0 -1 -1 -2 -2 -3 -3 -4 -4 -4 -4 -5 -4 -5 -6 -6 -7 -7 -8 -8 -8 -9 -8
-1 -1 -0 0 0 -0 0 1 -0 -1 -1 -2 -2 -1 -1 -0 -0 -0 -1 -0 -0 -1 -1 -2 -2 -3 -3 -4 -5 -5 -5 -5 -6 -6 -6 -6 -7 -9 -9 -9 -9 -9 -9
-1 -1 -1 -1 -1 -0 -0 -0 -1 -1 -1 -1 -1 -1 -1 -0 -1 -0 -1 -1 -2 -3 -3 -3 -3 -3 -3 -4 -4 -5 -5 -6 -6 -7 -7 -8 -9 -10 -9 -9 -8 -10 -10
-1 -1 -1 -2 -1 -1 -1 -0 -1 -1 -1 -1 -1 -1 -1 -1 -1 -2 -2 -2 -2 -2 -2 -2 -3 -4 -4 -4 -5 -6 -6 -7 -8 -8 -9 -9 -9 -9 -9 -9 -9 -8 -8
0 -0 -0 -0 -1 -1 -0 0 -0 -1 -0 -0 -1 -0 -0 -1 -1 -1 -1 -2 -2 -3 -3 -3 -4 -4 -5 -5 -6 -6 -7 -8 -8 -9 -9 -9 -9 -9 -9 -9 -8 -8 -8
1 0 -0 -0 -0 -1 -1 -1 -1 -0 -0 -0 -0 -0 -1 -1 -2 -2 -2 -3 -3 -3 -3 -3 -4 -4 -5 -6 -7 -8 -9 -10 -10 -10 -9 -9 -9 -9 -8 -8 -8 -8 -8
1 0 0 0 0 0 0 -0 -0 -0 -0 -0 -1 -1 -2 -2 -2 -2 -2 -2 -2 -3 -3 -4 -5 -6 -7 -7 -8 -8 -9 -9 -10 -9 -9 -9 -9 -9 -9 -8 -8 -8 -8
Height
1461 1464 1468 1470 1471 1472 1473 1476 1479 1482 1485 1486 1489 1492 1493 1496 1499 1501 1502 1506 1507 1509 1512 1516 1517 1519 1522 1525 1526 1527 1529 1530 1531 1532 1532 1531 1532 1532 1532 1531 1531 1530 1530
1454 1457 1460 1462 1464 1466 1467 1468 1471 1475 1476 1479 1482 1484 1487 1488 1492 1495 1497 1499 1502 1503 1506 1509 1511 1513 1516 1519 1520 1523 1525 1526 1527 1527 1529 1529 1529 1528 1528 1528 1528 1528 1527
1447 1448 1450 1453 1455 1457 1461 1463 1466 1468 1469 1472 1475 1476 1479 1480 1483 1486 1491 1493 1495 1497 1501 1504 1506 1508 1511 1512 1515 1517 1520 1521 1522 1523 1526 1525 1523 1523 1524 1525 1525 1525 1525
1444 1444 1444 1445 1446 1448 1453 1456 1460 1462 1465 1466 1464 1467 1468 1470 1474 1479 1485 1488 1489 1491 1494 1498 1501 1503 1505 1507 1510 1512 1513 1516 1517 1518 1519 1520 1520 1519 1521 1521 1521 1521 1521
1443 1442 1442 1442 1443 1444 1445 1449 1452 1455 1457 1459 1460 1461 1462 1463 1467 1471 1475 1479 1482 1484 1488 1491 1495 1498 1500 1503 1505 1506 1508 1510 1512 1513 1514 1515 1516 1515 1516 1516 1516 1517 1517
1444 1442 1441 1441 1442 1442 1443 1445 1447 1449 1451 1452 1453 1454 1456 1457 1459 1463 1467 1473 1476 1479 1482 1485 1488 1491 1494 1496 1499 1501 1503 1506 1506 1508 1509 1510 1511 1510 1512 1511 1512 1513 1514
1445 1444 1442 1441 1441 1441 1441 1442 1443 1444 1445 1445 1446 1448 1450 1452 1454 1456 1459 1463 1467 1469 1474 1477 1479 1482 1486 1489 1492 1495 1498 1500 1501 1502 1505 1506 1508 1506 1508 1507 1506 1507 1508
1447 1446 1445 1444 1442 1441 1440 1440 1440 1441 1441 1441 1441 1441 1443 1444 1446 1448 1451 1455 1458 1461 1465 1469 1473 1476 1479 1482 1487 1490 1492 1493 1496 1496 1498 1500 1501 1506 1505 1502 1501 1501 1501
1446 1444 1443 1442 1442 1441 1440 1438 1438 1438 1438 1438 1437 1436 1436 1437 1439 1441 1444 1446 1450 1453 1458 1463 1467 1470 1473 1478 1482 1485 1486 1487 1488 1492 1494 1495 1497 1501 1501 1499 1496 1496 1496
1443 1442 1440 1438 1437 1436 1436 1436 1435 1434 1433 1432 1431 1429 1428 1429 1432 1434 1435 1439 1442 1446 1451 1456 1460 1464 1468 1473 1476 1479 1481 1483 1484 1486 1488 1490 1490 1495 1498 1495 1493 1491 1490
1441 1439 1436 1434 1432 1432 1432 1431 1430 1429 1428 1426 1424 1423 1422 1422 1425 1426 1429 1431 1435 1440 1445 1450 1454 1460 1464 1467 1471 1474 1476 1479 1482 1483 1485 1486 1487 1490 1492 1489 1488 1487 1485
1438 1436 1433 1431 1429 1428 1428 1426 1425 1423 1422 1420 1417 1417 1417 1417 1418 1420 1423 1427 1431 1436 1441 1446 1451 1455 1459 1463 1465 1469 1473 1476 1478 1481 1484 1482 1485 1487 1487 1485 1483 1482 1480
1436 1433 1430 1428 1425 1423 1422 1421 1420 1418 1416 1413 1412 1412 1413 1414 1414 1417 1421 1425 1428 1433 1439 1444 1447 1450 1454 1458 1462 1466 1470 1473 1475 1476 1471 1482 1480 1481 1480 1479 1478 1476 1474
1433 1430 1426 1424 1420 1418 1418 1416 1415 1412 1412 1409 1408 1410 1411 1413 1415 1417 1421 1426 1428 1431 1436 1441 1446 1450 1454 1459 1463 1465 1469 1471 1472 1475 1476 1475 1474 1474 1474 1472 1472 1470 1467
1430 1427 1425 1423 1421 1419 1417 1415 1413 1411 1409 1407 1405 1409 1411 1413 1416 1417 1418 1423 1428 1429 1434 1439 1445 1451 1455 1459 1462 1464 1466 1469 1471 1472 1472 1471 1470 1469 1468 1466 1466 1464 1461
1431 1427 1425 1424 1422 1420 1417 1414 1412 1411 1410 1408 1407 1410 1412 1415 1417 1418 1421 1422 1429 1432 1437 1442 1448 1452 1455 1458 1460 1461 1464 1464 1468 1470 1468 1466 1465 1465 1464 1462 1461 1460 1457
1432 1429 1428 1426 1424 1421 1419 1417 1414 1413 1412 1411 1410 1413 1415 1417 1418 1422 1424 1427 1432 1435 1441 1446 1451 1455 1457 1455 1457 1461 1463 1466 1468 1466 1466 1465 1461 1459 1459 1457 1455 1454 1452
1432 1431 1429 1428 1425 1423 1421 1418 1417 1415 1414 1415 1416 1418 1421 1422 1425 1427 1428 1433 1437 1440 1444 1449 1453 1451 1452 1458 1456 1459 1461 1463 1465 1463 1461 1460 1458 1455 1454 1451 1450 1448 1446
1433 1431 1431 1430 1428 1427 1426 1424 1422 1420 1420 1419 1419 1422 1426 1428 1429 1428 1430 1436 1443 1444 1448 1447 1455 1457 1459 1458 1460 1459 1461 1461 1460 1459 1457 1456 1453 1451 1448 1446 1444 1441 1438
1434 1432 1432 1432 1431 1430 1429 1427 1424 1424 1424 1424 1425 1429 1431 1432 1432 1433 1437 1440 1443 1448 1451 1452 1458 1460 1461 1460 1458 1457 1457 1457 1456 1455 1453 1451 1448 1445 1444 1444 1439 1435 1432
1434 1433 1433 1433 1433 1433 1433 1431 1430 1430 1430 1431 1433 1435 1437 1436 1438 1441 1444 1446 1449 1452 1456 1458 1459 1460 1459 1458 1457 1455 1455 1453 1451 1449 1448 1445 1443 1441 1440 1438 1434 1431 1429
1436 1434 1434 1434 1435 1435 1436 1434 1433 1435 1436 1437 1438 1440 1441 1443 1445 1447 1449 1451 1453 1456 1458 1459 1458 1458 1457 1456 1455 1454 1452 1450 1447 1445 1442 1440 1438 1436 1434 1431 1429 1426 1424
1438 1436 1436 1436 1437 1437 1438 1438 1438 1440 1442 1443 1445 1446 1447 1448 1450 1452 1453 1455 1456 1457 1457 1457 1456 1456 1455 1453 1452 1450 1448 1446 1444 1441 1439 1437 1434 1432 1429 1427 1425 1423 1420
1441 1440 1440 1440 1440 1441 1442 1444 1445 1446 1447 1448 1449 1450 1452 1453 1454 1455 1456 1457 1457 1456 1456 1456 1455 1453 1452 1450 1448 1446 1445 1442 1440 1437 1435 1433 1430 1428 1427 1425 1423 1421 1418
1443 1444 1444 1444 1445 1446 1447 1448 1449 1450 1451 1452 1453 1454 1456 1456 1457 1457 1457 1456 1456 1456 1455 1454 1453 1452 1450 1448 1446 1444 1442 1440 1437 1434 1432 1430 1428 1427 1426 1423 1420 1417 1414
1445 1446 1447 1447 1448 1450 1451 1452 1453 1454 1455 1456 1457 1457 1458 1458 1458 1457 1457 1456 1456 1456 1455 1453 1451 1449 1448 1446 1444 1442 1440 1437 1434 1432 1429 1428 1427 1425 1423 1420 1417 1414 1411
Wind_Speed
37 33 32 29 25 27 38 44 40 33 28 31 38 41 40 37 37 35 31 29 29 28 25 24 24 26 26 24 21 22 22 21 20 18 16 14 13 13 12 10 9 9 9
42 39 37 34 32 27 23 31 43 38 31 30 32 41 44 42 37 38 36 34 33 31 29 27 28 29 28 27 27 25 24 22 21 20 16 10 14 16 15 13 12 12 12
39 39 40 39 38 37 32 28 24 25 29 35 32 40 45 46 44 42 39 39 35 34 30 29 29 30 31 32 30 28 26 24 23 22 16 7 9 9 13 15 15 15 15
23 21 21 20 20 28 33 29 28 29 28 23 31 39 41 46 49 44 41 39 39 36 34 32 31 33 31 33 34 31 28 25 24 22 24 22 16 9 7 12 14 15 16
13 15 15 14 12 12 17 25 27 29 30 30 29 28 35 42 46 46 44 43 41 39 38 37 33 34 33 34 37 33 30 28 26 25 23 21 19 17 16 11 13 15 16
21 18 13 12 13 13 12 14 18 21 24 29 29 31 30 34 38 43 42 42 42 39 40 40 38 35 34 37 37 33 31 29 27 25 24 21 19 18 17 15 15 15 16
27 28 23 13 11 10 14 17 19 19 19 21 30 28 26 29 34 35 38 42 44 44 43 42 42 39 36 38 36 33 31 30 27 25 23 20 18 17 17 15 15 16 20
30 28 24 22 16 13 12 16 19 20 20 20 22 25 27 29 29 34 35 35 41 45 45 44 41 40 38 35 33 32 31 30 25 23 20 17 15 17 17 16 15 17 20
35 30 27 21 19 18 16 16 19 22 24 26 27 29 33 31 28 29 34 37 39 42 43 43 37 36 33 31 30 32 31 29 25 21 20 16 15 16 16 15 15 16 17
32 29 26 23 16 19 19 16 19 22 25 26 27 30 31 31 28 27 32 37 40 41 43 39 35 33 30 29 31 31 28 25 23 20 17 15 14 16 17 16 17 19 20
31 28 23 24 19 18 16 14 14 19 22 24 27 29 27 27 26 29 33 36 39 37 36 34 29 28 29 31 32 28 25 22 19 16 11 11 13 14 16 17 19 20 21
29 21 30 30 21 17 16 20 24 21 21 22 24 25 24 22 23 27 29 32 32 29 27 27 26 29 31 30 28 25 22 18 14 12 12 12 13 14 17 20 20 21 22
22 27 26 23 20 19 24 24 21 18 23 21 19 19 20 19 19 20 22 25 24 23 23 25 29 31 29 28 25 21 18 16 15 14 10 13 18 19 19 21 23 23 23
24 23 23 20 17 13 17 19 18 16 19 16 14 13 15 15 15 17 17 18 19 21 23 25 26 26 24 22 19 17 16 14 10 11 16 19 16 18 20 21 23 23 25
26 17 16 14 10 10 11 11 11 12 11 10 7 10 13 15 17 19 20 19 21 22 22 26 25 23 20 18 17 15 11 8 11 11 14 14 17 20 21 21 22 23 23
23 11 10 8 7 8 7 7 8 7 5 2 7 11 13 17 20 20 22 19 19 21 24 23 21 18 18 16 13 10 9 9 10 11 14 16 18 20 22 21 20 21 21
15 12 9 9 8 8 6 6 4 4 2 7 13 13 16 19 19 19 17 19 22 22 20 18 16 15 11 9 6 3 6 8 11 13 16 19 20 21 20 20 20 18 20
10 9 7 6 5 4 2 2 4 6 6 5 6 8 11 14 15 17 19 21 19 19 18 17 13 10 8 5 3 3 6 9 13 15 17 18 18 19 20 19 19 20 23
6 5 4 3 2 3 5 6 9 6 6 7 9 9 10 15 18 16 18 19 20 17 12 9 6 4 3 1 4 6 7 10 14 15 16 18 21 21 18 17 20 24 27
2 2 1 1 2 5 4 5 9 10 12 14 19 21 22 20 20 22 21 18 14 13 10 9 7 5 2 1 4 8 12 14 17 18 20 21 21 19 16 18 23 27 26
2 1 1 3 3 3 2 5 10 13 14 15 17 18 20 22 20 19 15 13 12 10 7 4 2 2 3 4 6 10 15 17 20 21 23 22 20 15 16 17 20 20 18
4 4 4 6 6 5 6 8 15 18 17 20 20 19 17 17 14 13 14 13 10 7 4 2 1 4 7 10 12 14 15 16 19 21 22 20 17 19 20 17 16 15 17
8 9 9 9 12 8 8 19 20 19 18 17 18 17 17 16 15 13 11 8 5 1 1 4 6 8 10 11 12 13 15 16 16 19 18 20 20 19 16 14 14 16 18
11 15 17 18 18 18 19 18 17 16 15 16 16 15 13 12 11 8 5 3 1 1 3 5 7 10 12 13 14 15 17 17 19 21 21 20 18 15 15 14 13 15 17
13 14 16 18 18 16 15 15 15 14 14 13 13 11 9 8 6 4 3 2 3 6 9 11 11 12 13 13 14 15 17 16 18 17 17 14 12 12 12 13 14 15 15
13 14 15 16 17 15 15 14 12 10 8 9 9 7 5 4 3 3 5 7 9 11 12 13 13 14 15 15 16 18 17 18 15 14 13 12 12 14 16 17 16 15 17
Wind_Direction
271 264 262 263 270 252 246 244 247 251 252 247 243 240 245 246 246 245 243 241 234 231 228 228 229 228 231 236 236 237 242 247 246 242 244 249 253 256 252 252 252 255 265
271 269 265 260 261 259 255 249 247 250 249 250 247 241 242 244 245 248 246 244 239 236 234 231 233 233 231 233 236 241 242 243 239 235 240 248 251 248 243 245 252 256 264
270 272 271 268 262 257 254 254 253 252 255 250 247 245 238 240 241 242 243 244 243 241 240 240 237 237 235 235 238 238 240 242 237 232 230 222 232 228 236 242 250 252 259
281 285 287 284 271 257 250 255 256 259 257 259 246 244 247 243 239 241 242 243 244 242 242 244 241 240 240 240 240 238 238 240 236 234 236 239 248 232 232 241 246 250 254
344 317 306 309 301 284 257 248 253 254 253 253 254 249 248 249 245 240 235 236 238 241 242 243 242 241 245 247 241 238 235 237 235 235 239 241 244 249 245 255 245 247 252
24 6 332 304 287 269 252 245 250 257 260 255 254 252 250 249 251 245 240 238 240 240 243 243 246 243 243 244 241 236 234 236 236 238 239 242 244 248 249 249 257 261 259
15 9 359 325 306 285 270 260 258 257 261 260 249 255 252 251 253 253 251 241 237 236 240 240 242 243 243 241 238 232 233 235 236 235 239 242 250 257 258 260 263 271 277
353 348 345 342 307 278 260 253 252 252 257 259 262 262 256 250 248 250 252 248 244 242 239 237 240 242 240 237 232 230 230 233 230 228 231 235 255 259 263 265 271 276 278
346 340 340 331 305 293 276 269 262 262 262 266 269 271 267 261 251 250 245 244 245 243 242 240 242 244 236 231 227 226 228 228 227 225 236 240 253 263 268 273 279 282 284
338 335 333 328 320 271 259 264 267 263 262 265 267 270 273 264 257 255 245 242 241 240 237 234 234 234 228 225 223 222 224 219 220 226 227 239 252 265 273 282 285 286 284
331 327 327 326 307 303 274 289 291 288 279 275 274 278 272 263 258 257 247 236 237 234 232 226 230 224 221 219 218 219 218 214 216 226 229 242 257 265 278 287 289 288 288
324 317 322 317 297 285 284 299 303 309 298 286 286 281 263 258 260 254 243 233 227 222 222 225 219 216 213 211 213 209 209 213 216 217 240 259 263 282 288 289 289 290 291
322 320 316 303 308 280 288 289 294 296 304 308 295 275 257 259 253 238 228 218 209 212 212 212 210 206 205 204 199 202 207 212 222 235 244 257 270 288 292 290 291 292 292
330 323 325 319 305 278 278 283 287 298 294 299 292 265 249 239 219 210 205 204 201 202 205 204 202 199 192 191 194 196 206 218 228 244 260 274 290 285 286 288 291 293 295
334 331 329 325 328 306 297 301 303 299 294 280 271 226 204 200 194 189 183 192 193 194 194 189 184 183 187 190 196 204 216 236 257 282 295 296 290 287 289 291 292 295 296
347 341 327 317 314 311 307 318 318 310 303 243 186 184 186 185 181 180 180 180 182 175 172 174 178 177 182 193 206 220 242 262 298 293 287 284 288 291 290 287 284 284 292
353 354 348 341 331 320 330 339 337 335 264 181 161 165 170 166 166 160 161 159 161 160 161 166 171 172 180 199 205 245 313 307 288 290 289 291 292 291 295 297 293 289 290
5 1 357 347 339 339 357 356 81 76 68 100 104 150 139 145 144 142 140 145 151 153 155 159 163 170 178 201 46 324 294 278 283 291 296 297 300 305 305 304 302 297 293
15 30 19 24 24 34 63 71 89 89 90 105 120 130 142 141 136 130 134 145 150 139 143 138 164 141 93 100 253 278 288 295 298 306 310 308 309 310 311 310 303 298 299
12 8 58 72 70 93 97 108 111 115 118 126 130 139 144 146 140 134 131 130 130 136 126 99 117 136 173 231 309 314 306 308 309 310 310 313 314 312 316 303 299 298 304
3 5 186 193 161 123 125 110 106 108 120 132 133 136 132 124 124 123 119 120 115 101 115 122 131 226 259 270 275 288 303 307 307 311 311 312 313 315 309 304 295 301 314
67 92 122 131 118 120 126 111 108 107 117 119 115 114 110 109 114 118 111 106 106 123 140 163 254 297 303 301 298 299 302 303 309 312 315 318 320 309 311 310 311 310 302
91 101 117 126 125 130 118 118 110 116 117 114 112 112 114 111 103 96 98 104 111 109 317 294 291 297 304 307 311 314 313 317 318 315 317 312 314 316 318 319 317 314 314
108 106 107 109 111 116 118 114 116 117 116 114 114 112 108 105 103 100 96 94 92 313 313 318 323 328 329 326 322 323 324 325 322 321 322 322 321 322 323 321 317 317 320
129 117 121 120 119 122 121 117 115 118 118 111 104 102 105 107 103 97 82 38 345 341 340 335 328 324 326 330 327 329 330 325 323 315 321 324 324 327 328 329 331 329 327
151 147 139 133 128 126 123 122 119 113 112 116 115 113 103 90 73 42 7 348 332 326 328 333 334 328 328 327 322 322 324 324 325 325 327 333 335 336 336 336 337 337 332